Year,Month,Day,Hour,Minute,Value (Times are PST for windspeed in km/hr)
2006,02,05,00,00,7.20
2006,02,05,00,01,5.80
2006,02,05,00,02,0.30
2006,02,05,00,03,0.10
2006,02,05,00,04,4.60
2006,02,05,00,05,4.00
2006,02,05,00,06,5.70
2006,02,05,00,07,11.50
2006,02,05,00,08,4.10
2006,02,05,00,09,4.30
2006,02,05,00,10,5.10
2006,02,05,00,11,1.50
2006,02,05,00,12,4.70
2006,02,05,00,13,6.40
2006,02,05,00,14,4.00
2006,02,05,00,15,5.70
2006,02,05,00,16,3.60
2006,02,05,00,17,5.00
2006,02,05,00,18,6.60
2006,02,05,00,19,2.40
2006,02,05,00,20,1.20
2006,02,05,00,21,0.80
2006,02,05,00,22,1.10
2006,02,05,00,23,3.30
2006,02,05,00,24,1.10
2006,02,05,00,25,3.70
2006,02,05,00,26,3.10
2006,02,05,00,27,0.90
2006,02,05,00,28,6.90
2006,02,05,00,29,0.60
2006,02,05,00,30,4.00
2006,02,05,00,31,8.00
2006,02,05,00,32,0.90
2006,02,05,00,33,1.50
2006,02,05,00,34,0.90
2006,02,05,00,35,1.50
2006,02,05,00,36,0.30
2006,02,05,00,37,2.00
2006,02,05,00,38,3.00
2006,02,05,00,39,0.50
2006,02,05,00,40,0.40
2006,02,05,00,41,4.70
2006,02,05,00,42,5.20
2006,02,05,00,43,1.50
2006,02,05,00,44,2.00
2006,02,05,00,45,1.80
2006,02,05,00,46,1.30
2006,02,05,00,47,0.10
2006,02,05,00,48,0.60
2006,02,05,00,49,0.10
2006,02,05,00,50,0.50
2006,02,05,00,51,1.40
2006,02,05,00,52,0.60
2006,02,05,00,53,2.40
2006,02,05,00,54,1.50
2006,02,05,00,55,5.60
2006,02,05,00,56,4.90
2006,02,05,00,57,4.20
2006,02,05,00,58,1.10
2006,02,05,00,59,4.20
2006,02,05,01,00,9.40
2006,02,05,01,01,3.90
2006,02,05,01,02,5.50
2006,02,05,01,03,1.00
2006,02,05,01,04,0.30
2006,02,05,01,05,3.60
2006,02,05,01,06,0.70
2006,02,05,01,07,0.60
2006,02,05,01,08,1.20
2006,02,05,01,09,0.90
2006,02,05,01,10,0.10
2006,02,05,01,11,2.90
2006,02,05,01,12,1.40
2006,02,05,01,13,2.00
2006,02,05,01,14,2.10
2006,02,05,01,15,0.30
2006,02,05,01,16,1.80
2006,02,05,01,17,7.80
2006,02,05,01,18,5.80
2006,02,05,01,19,2.80
2006,02,05,01,20,1.30
2006,02,05,01,21,2.00
2006,02,05,01,22,1.50
2006,02,05,01,23,4.50
2006,02,05,01,24,4.40
2006,02,05,01,25,1.80
2006,02,05,01,26,0.90
2006,02,05,01,27,5.00
2006,02,05,01,28,2.10
2006,02,05,01,29,2.10
2006,02,05,01,30,2.30
2006,02,05,01,31,4.80
2006,02,05,01,32,3.80
2006,02,05,01,33,3.30
2006,02,05,01,34,2.00
2006,02,05,01,35,5.00
2006,02,05,01,36,8.60
2006,02,05,01,37,3.60
2006,02,05,01,38,3.70
2006,02,05,01,39,4.30
2006,02,05,01,40,3.30
2006,02,05,01,41,2.90
2006,02,05,01,42,5.00
2006,02,05,01,43,4.80
2006,02,05,01,44,7.20
2006,02,05,01,45,4.20
2006,02,05,01,46,2.60
2006,02,05,01,47,3.20
2006,02,05,01,48,4.50
2006,02,05,01,49,5.70
2006,02,05,01,50,1.50
2006,02,05,01,51,4.50
2006,02,05,01,52,3.10
2006,02,05,01,53,7.60
2006,02,05,01,54,8.20
2006,02,05,01,55,9.20
2006,02,05,01,56,6.00
2006,02,05,01,57,2.20
2006,02,05,01,58,5.80
2006,02,05,01,59,4.20
2006,02,05,02,00,4.90
2006,02,05,02,01,4.80
2006,02,05,02,02,7.10
2006,02,05,02,03,3.90
2006,02,05,02,04,2.60
2006,02,05,02,05,1.70
2006,02,05,02,06,5.90
2006,02,05,02,07,4.50
2006,02,05,02,08,3.00
2006,02,05,02,09,5.80
2006,02,05,02,10,4.40
2006,02,05,02,11,5.00
2006,02,05,02,12,0.80
2006,02,05,02,13,2.20
2006,02,05,02,14,5.60
2006,02,05,02,15,5.60
2006,02,05,02,16,5.90
2006,02,05,02,17,1.30
2006,02,05,02,18,0.60
2006,02,05,02,19,6.40
2006,02,05,02,20,2.70
2006,02,05,02,21,6.60
2006,02,05,02,22,1.30
2006,02,05,02,23,1.80
2006,02,05,02,24,3.80
2006,02,05,02,25,5.90
2006,02,05,02,26,4.80
2006,02,05,02,27,5.20
2006,02,05,02,28,4.70
2006,02,05,02,29,6.40
2006,02,05,02,30,5.40
2006,02,05,02,31,3.10
2006,02,05,02,32,1.50
2006,02,05,02,33,6.40
2006,02,05,02,34,2.90
2006,02,05,02,35,2.40
2006,02,05,02,36,3.10
2006,02,05,02,37,5.50
2006,02,05,02,38,5.70
2006,02,05,02,39,3.00
2006,02,05,02,40,3.00
2006,02,05,02,41,3.80
2006,02,05,02,42,0.80
2006,02,05,02,43,1.10
2006,02,05,02,44,1.20
2006,02,05,02,45,4.10
2006,02,05,02,46,3.90
2006,02,05,02,47,2.50
2006,02,05,02,48,1.40
2006,02,05,02,49,1.10
2006,02,05,02,50,2.50
2006,02,05,02,51,3.80
2006,02,05,02,52,4.90
2006,02,05,02,53,4.10
2006,02,05,02,54,4.00
2006,02,05,02,55,2.80
2006,02,05,02,56,3.40
2006,02,05,02,57,2.30
2006,02,05,02,58,3.90
2006,02,05,02,59,2.70
2006,02,05,03,00,1.90
2006,02,05,03,01,2.70
2006,02,05,03,02,2.00
2006,02,05,03,03,3.20
2006,02,05,03,04,4.20
2006,02,05,03,05,3.40
2006,02,05,03,06,2.10
2006,02,05,03,07,1.10
2006,02,05,03,08,1.60
2006,02,05,03,09,1.70
2006,02,05,03,10,3.60
2006,02,05,03,11,3.50
2006,02,05,03,12,1.10
2006,02,05,03,13,0.60
2006,02,05,03,14,0.70
2006,02,05,03,15,0.70
2006,02,05,03,16,2.50
2006,02,05,03,17,3.20
2006,02,05,03,18,2.40
2006,02,05,03,19,2.80
2006,02,05,03,20,2.10
2006,02,05,03,21,1.30
2006,02,05,03,22,3.00
2006,02,05,03,23,1.10
2006,02,05,03,24,0.30
2006,02,05,03,25,0.00
2006,02,05,03,26,0.00
2006,02,05,03,27,0.00
2006,02,05,03,28,0.00
2006,02,05,03,29,0.00
2006,02,05,03,30,0.00
2006,02,05,03,31,0.00
2006,02,05,03,32,0.00
2006,02,05,03,33,0.00
2006,02,05,03,34,0.00
2006,02,05,03,35,0.00
2006,02,05,03,36,0.00
2006,02,05,03,37,0.10
2006,02,05,03,38,0.00
2006,02,05,03,39,0.00
2006,02,05,03,40,0.00
2006,02,05,03,41,0.00
2006,02,05,03,42,0.00
2006,02,05,03,43,0.00
2006,02,05,03,44,0.00
2006,02,05,03,45,0.00
2006,02,05,03,46,0.00
2006,02,05,03,47,0.00
2006,02,05,03,48,0.00
2006,02,05,03,49,0.00
2006,02,05,03,50,0.00
2006,02,05,03,51,0.30
2006,02,05,03,52,0.10
2006,02,05,03,53,0.00
2006,02,05,03,54,0.00
2006,02,05,03,55,0.00
2006,02,05,03,56,0.10
2006,02,05,03,57,0.00
2006,02,05,03,58,0.00
2006,02,05,03,59,0.00
2006,02,05,04,00,0.10
2006,02,05,04,01,0.00
2006,02,05,04,02,0.00
2006,02,05,04,03,0.30
2006,02,05,04,04,0.00
2006,02,05,04,05,0.00
2006,02,05,04,06,0.00
2006,02,05,04,07,0.00
2006,02,05,04,08,0.00
2006,02,05,04,09,0.00
2006,02,05,04,10,0.00
2006,02,05,04,11,0.00
2006,02,05,04,12,0.00
2006,02,05,04,13,0.00
2006,02,05,04,14,0.00
2006,02,05,04,15,0.00
2006,02,05,04,16,0.00
2006,02,05,04,17,0.00
2006,02,05,04,18,0.00
2006,02,05,04,19,0.00
2006,02,05,04,20,0.00
2006,02,05,04,21,0.40
2006,02,05,04,22,0.30
2006,02,05,04,23,2.20
2006,02,05,04,24,0.50
2006,02,05,04,25,0.50
2006,02,05,04,26,0.40
2006,02,05,04,27,0.20
2006,02,05,04,28,0.60
2006,02,05,04,29,0.10
2006,02,05,04,30,0.10
2006,02,05,04,31,0.70
2006,02,05,04,32,0.40
2006,02,05,04,33,0.60
2006,02,05,04,34,0.10
2006,02,05,04,35,1.30
2006,02,05,04,36,1.40
2006,02,05,04,37,0.80
2006,02,05,04,38,0.90
2006,02,05,04,39,1.50
2006,02,05,04,40,2.60
2006,02,05,04,41,3.20
2006,02,05,04,42,0.90
2006,02,05,04,43,0.30
2006,02,05,04,44,0.20
2006,02,05,04,45,0.30
2006,02,05,04,46,1.50
2006,02,05,04,47,0.00
2006,02,05,04,48,0.20
2006,02,05,04,49,1.50
2006,02,05,04,50,1.50
2006,02,05,04,51,2.60
2006,02,05,04,52,1.00
2006,02,05,04,53,0.50
2006,02,05,04,54,0.10
2006,02,05,04,55,0.70
2006,02,05,04,56,1.50
2006,02,05,04,57,0.70
2006,02,05,04,58,1.40
2006,02,05,04,59,0.40
2006,02,05,05,00,0.70
2006,02,05,05,01,1.30
2006,02,05,05,02,2.00
2006,02,05,05,03,1.00
2006,02,05,05,04,0.00
2006,02,05,05,05,0.40
2006,02,05,05,06,0.50
2006,02,05,05,07,0.70
2006,02,05,05,08,3.10
2006,02,05,05,09,4.70
2006,02,05,05,10,5.10
2006,02,05,05,11,6.00
2006,02,05,05,12,1.90
2006,02,05,05,13,0.80
2006,02,05,05,14,4.50
2006,02,05,05,15,3.30
2006,02,05,05,16,2.70
2006,02,05,05,17,2.70
2006,02,05,05,18,1.60
2006,02,05,05,19,2.00
2006,02,05,05,20,1.00
2006,02,05,05,21,2.00
2006,02,05,05,22,0.40
2006,02,05,05,23,1.10
2006,02,05,05,24,1.50
2006,02,05,05,25,0.80
2006,02,05,05,26,0.00
2006,02,05,05,27,0.90
2006,02,05,05,28,1.70
2006,02,05,05,29,1.80
2006,02,05,05,30,0.20
2006,02,05,05,31,1.50
2006,02,05,05,32,1.80
2006,02,05,05,33,1.10
2006,02,05,05,34,0.10
2006,02,05,05,35,1.10
2006,02,05,05,36,0.00
2006,02,05,05,37,0.00
2006,02,05,05,38,0.00
2006,02,05,05,39,0.00
2006,02,05,05,40,0.00
2006,02,05,05,41,0.70
2006,02,05,05,42,0.10
2006,02,05,05,43,0.40
2006,02,05,05,44,0.10
2006,02,05,05,45,0.10
2006,02,05,05,46,0.60
2006,02,05,05,47,0.70
2006,02,05,05,48,0.20
2006,02,05,05,49,1.00
2006,02,05,05,50,0.10
2006,02,05,05,51,0.00
2006,02,05,05,52,0.70
2006,02,05,05,53,0.60
2006,02,05,05,54,0.10
2006,02,05,05,55,1.70
2006,02,05,05,56,2.50
2006,02,05,05,57,0.10
2006,02,05,05,58,0.00
2006,02,05,05,59,0.00
2006,02,05,06,00,0.10
2006,02,05,06,01,0.10
2006,02,05,06,02,0.00
2006,02,05,06,03,0.00
2006,02,05,06,04,0.10
2006,02,05,06,05,0.00
2006,02,05,06,06,0.00
2006,02,05,06,07,0.20
2006,02,05,06,08,0.10
2006,02,05,06,09,0.10
2006,02,05,06,10,0.00
2006,02,05,06,11,0.40
2006,02,05,06,12,0.00
2006,02,05,06,13,1.50
2006,02,05,06,14,2.70
2006,02,05,06,15,1.30
2006,02,05,06,16,2.60
2006,02,05,06,17,2.60
2006,02,05,06,18,4.00
2006,02,05,06,19,1.40
2006,02,05,06,20,1.60
2006,02,05,06,21,5.30
2006,02,05,06,22,4.70
2006,02,05,06,23,1.40
2006,02,05,06,24,2.90
2006,02,05,06,25,0.40
2006,02,05,06,26,0.80
2006,02,05,06,27,1.00
2006,02,05,06,28,2.20
2006,02,05,06,29,1.40
2006,02,05,06,30,5.20
2006,02,05,06,31,3.20
2006,02,05,06,32,1.50
2006,02,05,06,33,1.10
2006,02,05,06,34,0.10
2006,02,05,06,35,0.50
2006,02,05,06,36,0.90
2006,02,05,06,37,0.10
2006,02,05,06,38,0.40
2006,02,05,06,39,0.60
2006,02,05,06,40,0.30
2006,02,05,06,41,1.40
2006,02,05,06,42,0.70
2006,02,05,06,43,0.20
2006,02,05,06,44,0.10
2006,02,05,06,45,0.00
2006,02,05,06,46,0.00
2006,02,05,06,47,0.00
2006,02,05,06,48,0.10
2006,02,05,06,49,0.00
2006,02,05,06,50,0.00
2006,02,05,06,51,0.00
2006,02,05,06,52,0.00
2006,02,05,06,53,0.50
2006,02,05,06,54,0.40
2006,02,05,06,55,2.40
2006,02,05,06,56,0.00
2006,02,05,06,57,0.60
2006,02,05,06,58,1.30
2006,02,05,06,59,0.40
2006,02,05,07,00,0.50
2006,02,05,07,01,1.30
2006,02,05,07,02,0.00
2006,02,05,07,03,0.00
2006,02,05,07,04,0.10
2006,02,05,07,05,0.40
2006,02,05,07,06,0.10
2006,02,05,07,07,0.10
2006,02,05,07,08,0.10
2006,02,05,07,09,0.20
2006,02,05,07,10,0.00
2006,02,05,07,11,1.40
2006,02,05,07,12,0.20
2006,02,05,07,13,1.10
2006,02,05,07,14,0.00
2006,02,05,07,15,0.30
2006,02,05,07,16,1.50
2006,02,05,07,17,0.10
2006,02,05,07,18,0.00
2006,02,05,07,19,0.00
2006,02,05,07,20,0.20
2006,02,05,07,21,0.10
2006,02,05,07,22,0.70
2006,02,05,07,23,0.60
2006,02,05,07,24,0.80
2006,02,05,07,25,0.50
2006,02,05,07,26,1.80
2006,02,05,07,27,0.10
2006,02,05,07,28,0.10
2006,02,05,07,29,0.20
2006,02,05,07,30,0.10
2006,02,05,07,31,0.00
2006,02,05,07,32,0.40
2006,02,05,07,33,0.90
2006,02,05,07,34,0.50
2006,02,05,07,35,1.50
2006,02,05,07,36,0.60
2006,02,05,07,37,0.20
2006,02,05,07,38,0.00
2006,02,05,07,39,0.00
2006,02,05,07,40,0.10
2006,02,05,07,41,1.10
2006,02,05,07,42,3.20
2006,02,05,07,43,1.00
2006,02,05,07,44,0.10
2006,02,05,07,45,0.10
2006,02,05,07,46,0.00
2006,02,05,07,47,0.00
2006,02,05,07,48,0.00
2006,02,05,07,49,0.00
2006,02,05,07,50,0.00
2006,02,05,07,51,0.20
2006,02,05,07,52,0.10
2006,02,05,07,53,0.20
2006,02,05,07,54,1.80
2006,02,05,07,55,0.00
2006,02,05,07,56,0.00
2006,02,05,07,57,0.00
2006,02,05,07,58,0.00
2006,02,05,07,59,0.00
2006,02,05,08,00,0.00
2006,02,05,08,01,0.00
2006,02,05,08,02,0.00
2006,02,05,08,03,0.00
2006,02,05,08,04,0.00
2006,02,05,08,05,0.30
2006,02,05,08,06,1.40
2006,02,05,08,07,0.30
2006,02,05,08,08,0.00
2006,02,05,08,09,0.10
2006,02,05,08,10,0.10
2006,02,05,08,11,0.00
2006,02,05,08,12,0.00
2006,02,05,08,13,0.00
2006,02,05,08,14,0.00
2006,02,05,08,15,0.00
2006,02,05,08,16,0.00
2006,02,05,08,17,0.00
2006,02,05,08,18,0.00
2006,02,05,08,19,0.00
2006,02,05,08,20,0.00
2006,02,05,08,21,0.00
2006,02,05,08,22,0.00
2006,02,05,08,23,0.00
2006,02,05,08,24,0.00
2006,02,05,08,25,0.00
2006,02,05,08,26,0.00
2006,02,05,08,27,0.00
2006,02,05,08,28,0.00
2006,02,05,08,29,0.00
2006,02,05,08,30,0.00
2006,02,05,08,31,0.00
2006,02,05,08,32,0.10
2006,02,05,08,33,0.60
2006,02,05,08,34,1.40
2006,02,05,08,35,1.10
2006,02,05,08,36,1.10
2006,02,05,08,37,0.70
2006,02,05,08,38,0.20
2006,02,05,08,39,0.10
2006,02,05,08,40,1.50
2006,02,05,08,41,0.10
2006,02,05,08,42,0.10
2006,02,05,08,43,0.20
2006,02,05,08,44,0.10
2006,02,05,08,45,0.00
2006,02,05,08,46,0.10
2006,02,05,08,47,0.10
2006,02,05,08,48,0.50
2006,02,05,08,49,1.20
2006,02,05,08,50,1.00
2006,02,05,08,51,0.80
2006,02,05,08,52,0.70
2006,02,05,08,53,0.70
2006,02,05,08,54,0.10
2006,02,05,08,55,0.00
2006,02,05,08,56,0.00
2006,02,05,08,57,0.00
2006,02,05,08,58,0.40
2006,02,05,08,59,0.20
2006,02,05,09,00,0.00
2006,02,05,09,01,0.10
2006,02,05,09,02,0.10
2006,02,05,09,03,0.20
2006,02,05,09,04,0.50
2006,02,05,09,05,1.60
2006,02,05,09,06,0.60
2006,02,05,09,07,1.10
2006,02,05,09,08,0.10
2006,02,05,09,09,0.00
2006,02,05,09,10,0.00
2006,02,05,09,11,0.00
2006,02,05,09,12,0.40
2006,02,05,09,13,1.20
2006,02,05,09,14,0.50
2006,02,05,09,15,0.40
2006,02,05,09,16,0.10
2006,02,05,09,17,0.10
2006,02,05,09,18,0.10
2006,02,05,09,19,0.20
2006,02,05,09,20,1.00
2006,02,05,09,21,0.60
2006,02,05,09,22,0.50
2006,02,05,09,23,0.10
2006,02,05,09,24,0.60
2006,02,05,09,25,1.10
2006,02,05,09,26,0.10
2006,02,05,09,27,0.40
2006,02,05,09,28,0.10
2006,02,05,09,29,0.00
2006,02,05,09,30,0.20
2006,02,05,09,31,0.10
2006,02,05,09,32,0.10
2006,02,05,09,33,1.40
2006,02,05,09,34,0.40
2006,02,05,09,35,0.30
2006,02,05,09,36,0.10
2006,02,05,09,37,0.00
2006,02,05,09,38,0.00
2006,02,05,09,39,0.10
2006,02,05,09,40,0.00
2006,02,05,09,41,0.70
2006,02,05,09,42,0.40
2006,02,05,09,43,0.10
2006,02,05,09,44,0.00
2006,02,05,09,45,1.00
2006,02,05,09,46,0.00
2006,02,05,09,47,0.80
2006,02,05,09,48,0.00
2006,02,05,09,49,0.30
2006,02,05,09,50,0.70
2006,02,05,09,51,0.40
2006,02,05,09,52,0.10
2006,02,05,09,53,0.20
2006,02,05,09,54,0.10
2006,02,05,09,55,0.20
2006,02,05,09,56,0.60
2006,02,05,09,57,0.10
2006,02,05,09,58,0.00
2006,02,05,09,59,0.10
2006,02,05,10,00,0.40
2006,02,05,10,01,1.10
2006,02,05,10,02,1.80
2006,02,05,10,03,0.50
2006,02,05,10,04,1.10
2006,02,05,10,05,1.60
2006,02,05,10,06,1.30
2006,02,05,10,07,1.90
2006,02,05,10,08,1.00
2006,02,05,10,09,2.30
2006,02,05,10,10,2.50
2006,02,05,10,11,1.40
2006,02,05,10,12,1.80
2006,02,05,10,13,1.80
2006,02,05,10,14,1.60
2006,02,05,10,15,0.30
2006,02,05,10,16,0.30
2006,02,05,10,17,0.00
2006,02,05,10,18,0.00
2006,02,05,10,19,0.10
2006,02,05,10,20,0.20
2006,02,05,10,21,0.40
2006,02,05,10,22,0.60
2006,02,05,10,23,0.00
2006,02,05,10,24,0.00
2006,02,05,10,25,0.00
2006,02,05,10,26,0.30
2006,02,05,10,27,0.00
2006,02,05,10,28,0.20
2006,02,05,10,29,0.00
2006,02,05,10,30,0.00
2006,02,05,10,31,0.10
2006,02,05,10,32,0.00
2006,02,05,10,33,0.10
2006,02,05,10,34,1.30
2006,02,05,10,35,1.40
2006,02,05,10,36,2.00
2006,02,05,10,37,2.00
2006,02,05,10,38,2.80
2006,02,05,10,39,0.80
2006,02,05,10,40,1.20
2006,02,05,10,41,0.90
2006,02,05,10,42,1.50
2006,02,05,10,43,0.50
2006,02,05,10,44,0.20
2006,02,05,10,45,0.40
2006,02,05,10,46,0.40
2006,02,05,10,47,3.60
2006,02,05,10,48,3.60
2006,02,05,10,49,2.40
2006,02,05,10,50,1.20
2006,02,05,10,51,3.10
2006,02,05,10,52,2.60
2006,02,05,10,53,1.50
2006,02,05,10,54,2.60
2006,02,05,10,55,2.20
2006,02,05,10,56,3.00
2006,02,05,10,57,3.40
2006,02,05,10,58,4.10
2006,02,05,10,59,3.90
2006,02,05,11,00,3.40
2006,02,05,11,01,2.50
2006,02,05,11,02,0.10
2006,02,05,11,03,0.90
2006,02,05,11,04,1.90
2006,02,05,11,05,1.10
2006,02,05,11,06,1.80
2006,02,05,11,07,2.30
2006,02,05,11,08,0.50
2006,02,05,11,09,0.10
2006,02,05,11,10,0.10
2006,02,05,11,11,1.30
2006,02,05,11,12,3.10
2006,02,05,11,13,3.00
2006,02,05,11,14,4.30
2006,02,05,11,15,4.10
2006,02,05,11,16,3.60
2006,02,05,11,17,2.00
2006,02,05,11,18,2.60
2006,02,05,11,19,4.40
2006,02,05,11,20,4.10
2006,02,05,11,21,2.50
2006,02,05,11,22,1.40
2006,02,05,11,23,2.70
2006,02,05,11,24,2.50
2006,02,05,11,25,3.40
2006,02,05,11,26,2.70
2006,02,05,11,27,1.70
2006,02,05,11,28,2.50
2006,02,05,11,29,3.60
2006,02,05,11,30,2.90
2006,02,05,11,31,1.80
2006,02,05,11,32,1.50
2006,02,05,11,33,4.60
2006,02,05,11,34,2.90
2006,02,05,11,35,1.80
2006,02,05,11,36,0.20
2006,02,05,11,37,0.30
2006,02,05,11,38,1.20
2006,02,05,11,39,0.10
2006,02,05,11,40,0.00
2006,02,05,11,41,0.00
2006,02,05,11,42,0.10
2006,02,05,11,43,0.30
2006,02,05,11,44,0.70
2006,02,05,11,45,1.50
2006,02,05,11,46,1.40
2006,02,05,11,47,0.10
2006,02,05,11,48,0.00
2006,02,05,11,49,0.00
2006,02,05,11,50,0.40
2006,02,05,11,51,0.30
2006,02,05,11,52,0.00
2006,02,05,11,53,0.00
2006,02,05,11,54,0.00
2006,02,05,11,55,0.00
2006,02,05,11,56,0.00
2006,02,05,11,57,0.10
2006,02,05,11,58,0.30
2006,02,05,11,59,0.30
2006,02,05,12,00,1.50
2006,02,05,12,01,3.60
2006,02,05,12,02,2.30
2006,02,05,12,03,1.50
2006,02,05,12,04,2.00
2006,02,05,12,05,0.70
2006,02,05,12,06,0.10
2006,02,05,12,07,1.20
2006,02,05,12,08,0.70
2006,02,05,12,09,0.70
2006,02,05,12,10,0.80
2006,02,05,12,11,0.40
2006,02,05,12,12,1.40
2006,02,05,12,13,1.50
2006,02,05,12,14,1.10
2006,02,05,12,15,0.20
2006,02,05,12,16,0.10
2006,02,05,12,17,0.30
2006,02,05,12,18,1.50
2006,02,05,12,19,2.80
2006,02,05,12,20,1.30
2006,02,05,12,21,1.20
2006,02,05,12,22,0.80
2006,02,05,12,23,0.20
2006,02,05,12,24,0.00
2006,02,05,12,25,0.00
2006,02,05,12,26,0.10
2006,02,05,12,27,0.40
2006,02,05,12,28,0.10
2006,02,05,12,29,0.00
2006,02,05,12,30,0.30
2006,02,05,12,31,0.10
2006,02,05,12,32,0.00
2006,02,05,12,33,0.30
2006,02,05,12,34,1.70
2006,02,05,12,35,1.60
2006,02,05,12,36,2.70
2006,02,05,12,37,1.90
2006,02,05,12,38,0.50
2006,02,05,12,39,0.90
2006,02,05,12,40,1.50
2006,02,05,12,41,1.10
2006,02,05,12,42,1.00
2006,02,05,12,43,1.20
2006,02,05,12,44,0.70
2006,02,05,12,45,0.00
2006,02,05,12,46,0.10
2006,02,05,12,47,0.10
2006,02,05,12,48,1.20
2006,02,05,12,49,0.00
2006,02,05,12,50,0.10
2006,02,05,12,51,0.90
2006,02,05,12,52,1.00
2006,02,05,12,53,0.80
2006,02,05,12,54,1.10
2006,02,05,12,55,1.00
2006,02,05,12,56,3.10
2006,02,05,12,57,3.30
2006,02,05,12,58,5.10
2006,02,05,12,59,4.00
2006,02,05,13,00,0.60
2006,02,05,13,01,1.20
2006,02,05,13,02,1.30
2006,02,05,13,03,1.70
2006,02,05,13,04,2.40
2006,02,05,13,05,0.40
2006,02,05,13,06,0.30
2006,02,05,13,07,0.10
2006,02,05,13,08,0.50
2006,02,05,13,09,1.10
2006,02,05,13,10,1.30
2006,02,05,13,11,2.60
2006,02,05,13,12,1.20
2006,02,05,13,13,1.70
2006,02,05,13,14,0.30
2006,02,05,13,15,0.10
2006,02,05,13,16,1.10
2006,02,05,13,17,0.50
2006,02,05,13,18,0.30
2006,02,05,13,19,0.00
2006,02,05,13,20,0.10
2006,02,05,13,21,0.10
2006,02,05,13,22,0.70
2006,02,05,13,23,0.70
2006,02,05,13,24,0.00
2006,02,05,13,25,0.00
2006,02,05,13,26,0.60
2006,02,05,13,27,1.70
2006,02,05,13,28,0.10
2006,02,05,13,29,0.20
2006,02,05,13,30,1.50
2006,02,05,13,31,1.90
2006,02,05,13,32,1.30
2006,02,05,13,33,0.80
2006,02,05,13,34,4.00
2006,02,05,13,35,3.60
2006,02,05,13,36,4.20
2006,02,05,13,37,2.00
2006,02,05,13,38,2.20
2006,02,05,13,39,1.70
2006,02,05,13,40,2.20
2006,02,05,13,41,2.70
2006,02,05,13,42,1.90
2006,02,05,13,43,2.70
2006,02,05,13,44,1.10
2006,02,05,13,45,0.10
2006,02,05,13,46,0.00
2006,02,05,13,47,0.20
2006,02,05,13,48,0.10
2006,02,05,13,49,0.60
2006,02,05,13,50,0.70
2006,02,05,13,51,0.00
2006,02,05,13,52,0.00
2006,02,05,13,53,0.90
2006,02,05,13,54,2.10
2006,02,05,13,55,2.80
2006,02,05,13,56,2.70
2006,02,05,13,57,2.10
2006,02,05,13,58,1.20
2006,02,05,13,59,0.10
2006,02,05,14,00,0.50
2006,02,05,14,01,0.80
2006,02,05,14,02,1.30
2006,02,05,14,03,0.50
2006,02,05,14,04,0.40
2006,02,05,14,05,1.50
2006,02,05,14,06,1.80
2006,02,05,14,07,1.50
2006,02,05,14,08,0.50
2006,02,05,14,09,0.10
2006,02,05,14,10,0.20
2006,02,05,14,11,1.30
2006,02,05,14,12,3.10
2006,02,05,14,13,3.90
2006,02,05,14,14,3.30
2006,02,05,14,15,3.80
2006,02,05,14,16,3.20
2006,02,05,14,17,1.00
2006,02,05,14,18,0.10
2006,02,05,14,19,1.30
2006,02,05,14,20,3.10
2006,02,05,14,21,2.60
2006,02,05,14,22,2.40
2006,02,05,14,23,1.20
2006,02,05,14,24,0.90
2006,02,05,14,25,1.00
2006,02,05,14,26,1.60
2006,02,05,14,27,2.40
2006,02,05,14,28,1.10
2006,02,05,14,29,0.60
2006,02,05,14,30,2.00
2006,02,05,14,31,2.30
2006,02,05,14,32,1.10
2006,02,05,14,33,0.30
2006,02,05,14,34,0.00
2006,02,05,14,35,0.10
2006,02,05,14,36,0.90
2006,02,05,14,37,1.50
2006,02,05,14,38,4.10
2006,02,05,14,39,3.50
2006,02,05,14,40,2.30
2006,02,05,14,41,1.70
2006,02,05,14,42,1.10
2006,02,05,14,43,0.70
2006,02,05,14,44,2.50
2006,02,05,14,45,3.60
2006,02,05,14,46,1.80
2006,02,05,14,47,1.50
2006,02,05,14,48,4.10
2006,02,05,14,49,3.80
2006,02,05,14,50,1.50
2006,02,05,14,51,0.40
2006,02,05,14,52,0.20
2006,02,05,14,53,1.00
2006,02,05,14,54,0.10
2006,02,05,14,55,0.40
2006,02,05,14,56,0.00
2006,02,05,14,57,0.10
2006,02,05,14,58,2.00
2006,02,05,14,59,1.20
2006,02,05,15,00,0.00
2006,02,05,15,01,0.20
2006,02,05,15,02,0.00
2006,02,05,15,03,0.00
2006,02,05,15,04,0.10
2006,02,05,15,05,0.00
2006,02,05,15,06,0.00
2006,02,05,15,07,0.30
2006,02,05,15,08,1.90
2006,02,05,15,09,0.10
2006,02,05,15,10,0.00
2006,02,05,15,11,0.00
2006,02,05,15,12,0.10
2006,02,05,15,13,0.10
2006,02,05,15,14,0.60
2006,02,05,15,15,0.10
2006,02,05,15,16,1.30
2006,02,05,15,17,1.80
2006,02,05,15,18,0.90
2006,02,05,15,19,2.60
2006,02,05,15,20,5.10
2006,02,05,15,21,5.20
2006,02,05,15,22,4.60
2006,02,05,15,23,4.40
2006,02,05,15,24,4.10
2006,02,05,15,25,4.60
2006,02,05,15,26,4.20
2006,02,05,15,27,4.50
2006,02,05,15,28,4.80
2006,02,05,15,29,6.00
2006,02,05,15,30,4.80
2006,02,05,15,31,2.20
2006,02,05,15,32,3.40
2006,02,05,15,33,5.30
2006,02,05,15,34,4.80
2006,02,05,15,35,6.30
2006,02,05,15,36,6.20
2006,02,05,15,37,2.80
2006,02,05,15,38,4.60
2006,02,05,15,39,2.80
2006,02,05,15,40,0.70
2006,02,05,15,41,0.60
2006,02,05,15,42,1.20
2006,02,05,15,43,0.20
2006,02,05,15,44,0.10
2006,02,05,15,45,0.50
2006,02,05,15,46,1.00
2006,02,05,15,47,4.10
2006,02,05,15,48,3.90
2006,02,05,15,49,3.60
2006,02,05,15,50,3.00
2006,02,05,15,51,4.50
2006,02,05,15,52,4.50
2006,02,05,15,53,3.30
2006,02,05,15,54,3.40
2006,02,05,15,55,7.10
2006,02,05,15,56,5.00
2006,02,05,15,57,3.10
2006,02,05,15,58,2.50
2006,02,05,15,59,5.10
2006,02,05,16,00,7.20
2006,02,05,16,01,6.30
2006,02,05,16,02,4.30
2006,02,05,16,03,5.90
2006,02,05,16,04,3.90
2006,02,05,16,05,3.50
2006,02,05,16,06,5.00
2006,02,05,16,07,4.10
2006,02,05,16,08,4.50
2006,02,05,16,09,4.90
2006,02,05,16,10,7.40
2006,02,05,16,11,4.00
2006,02,05,16,12,5.40
2006,02,05,16,13,5.20
2006,02,05,16,14,7.50
2006,02,05,16,15,2.60
2006,02,05,16,16,3.20
2006,02,05,16,17,2.80
2006,02,05,16,18,3.60
2006,02,05,16,19,4.50
2006,02,05,16,20,6.50
2006,02,05,16,21,3.80
2006,02,05,16,22,3.40
2006,02,05,16,23,6.30
2006,02,05,16,24,5.00
2006,02,05,16,25,2.90
2006,02,05,16,26,3.80
2006,02,05,16,27,1.50
2006,02,05,16,28,1.00
2006,02,05,16,29,2.40
2006,02,05,16,30,2.00
2006,02,05,16,31,2.30
2006,02,05,16,32,0.50
2006,02,05,16,33,1.30
2006,02,05,16,34,2.50
2006,02,05,16,35,0.40
2006,02,05,16,36,0.60
2006,02,05,16,37,0.20
2006,02,05,16,38,0.50
2006,02,05,16,39,0.40
2006,02,05,16,40,0.80
2006,02,05,16,41,1.50
2006,02,05,16,42,0.40
2006,02,05,16,43,0.10
2006,02,05,16,44,0.20
2006,02,05,16,45,0.00
2006,02,05,16,46,0.50
2006,02,05,16,47,0.50
2006,02,05,16,48,1.00
2006,02,05,16,49,1.50
2006,02,05,16,50,0.50
2006,02,05,16,51,0.10
2006,02,05,16,52,0.10
2006,02,05,16,53,1.40
2006,02,05,16,54,1.20
2006,02,05,16,55,0.10
2006,02,05,16,56,0.10
2006,02,05,16,57,2.10
2006,02,05,16,58,2.20
2006,02,05,16,59,0.00
2006,02,05,17,00,0.40
2006,02,05,17,01,0.90
2006,02,05,17,02,0.70
2006,02,05,17,03,0.80
2006,02,05,17,04,0.30
2006,02,05,17,05,1.60
2006,02,05,17,06,1.00
2006,02,05,17,07,0.50
2006,02,05,17,08,0.30
2006,02,05,17,09,0.50
2006,02,05,17,10,0.20
2006,02,05,17,11,1.30
2006,02,05,17,12,0.60
2006,02,05,17,13,0.00
2006,02,05,17,14,0.10
2006,02,05,17,15,1.00
2006,02,05,17,16,2.00
2006,02,05,17,17,0.10
2006,02,05,17,18,0.50
2006,02,05,17,19,0.00
2006,02,05,17,20,0.00
2006,02,05,17,21,0.00
2006,02,05,17,22,0.00
2006,02,05,17,23,0.00
2006,02,05,17,24,0.00
2006,02,05,17,25,0.00
2006,02,05,17,26,0.00
2006,02,05,17,27,0.00
2006,02,05,17,28,0.00
2006,02,05,17,29,0.10
2006,02,05,17,30,1.20
2006,02,05,17,31,0.90
2006,02,05,17,32,0.80
2006,02,05,17,33,0.00
2006,02,05,17,34,0.10
2006,02,05,17,35,0.60
2006,02,05,17,36,0.00
2006,02,05,17,37,0.40
2006,02,05,17,38,0.40
2006,02,05,17,39,0.60
2006,02,05,17,40,0.60
2006,02,05,17,41,0.00
2006,02,05,17,42,0.10
2006,02,05,17,43,0.10
2006,02,05,17,44,0.30
2006,02,05,17,45,0.60
2006,02,05,17,46,1.10
2006,02,05,17,47,1.80
2006,02,05,17,48,0.60
2006,02,05,17,49,0.90
2006,02,05,17,50,0.90
2006,02,05,17,51,1.10
2006,02,05,17,52,0.40
2006,02,05,17,53,0.70
2006,02,05,17,54,0.60
2006,02,05,17,55,1.10
2006,02,05,17,56,1.10
2006,02,05,17,57,0.00
2006,02,05,17,58,0.20
2006,02,05,17,59,0.30
2006,02,05,18,00,0.10
2006,02,05,18,01,0.00
2006,02,05,18,02,0.60
2006,02,05,18,03,0.00
2006,02,05,18,04,0.00
2006,02,05,18,05,0.00
2006,02,05,18,06,0.10